Time,TemperatureF,DewpointF,PressureIn,WindDirection,WindDirectionDegrees,WindSpeedMPH,WindSpeedGustMPH,Humidity,HourlyPrecipIn,Conditions,Clouds,dailyrainin,SoftwareType,DateUTC
2013-02-09 00:00:00,11.5,9.9,30.32,NNW,347,0.0,0.0,93,0.00,,,0.00,SomeHackedPerlScript,2013-02-09 05:00:00,
2013-02-09 00:05:00,11.5,10.1,30.33,NNW,347,0.0,0.0,93,0.00,,,0.00,SomeHackedPerlScript,2013-02-09 05:05:00,
2013-02-09 00:10:00,11.4,10.0,30.33,NNW,347,0.0,0.0,94,0.00,,,0.00,SomeHackedPerlScript,2013-02-09 05:10:00,
2013-02-09 00:15:00,11.3,9.9,30.33,NNW,347,0.0,0.0,94,0.00,,,0.00,SomeHackedPerlScript,2013-02-09 05:15:00,
2013-02-09 00:20:00,11.1,9.8,30.33,NNW,347,0.0,0.0,94,0.00,,,0.00,SomeHackedPerlScript,2013-02-09 05:20:00,
2013-02-09 00:25:00,11.0,9.7,30.33,NNW,347,0.0,0.0,94,0.00,,,0.00,SomeHackedPerlScript,2013-02-09 05:25:00,
2013-02-09 00:30:00,10.8,9.6,30.33,NNW,347,0.0,0.0,94,0.00,,,0.00,SomeHackedPerlScript,2013-02-09 05:30:00,
2013-02-09 00:35:00,10.9,9.7,30.33,NNW,347,0.0,0.5,94,0.00,,,0.00,SomeHackedPerlScript,2013-02-09 05:35:00,
2013-02-09 00:40:00,10.9,9.8,30.33,NNW,347,0.0,0.0,95,0.00,,,0.00,SomeHackedPerlScript,2013-02-09 05:40:00,
2013-02-09 00:45:00,11.0,10.0,30.34,NNW,347,0.0,0.0,95,0.00,,,0.00,SomeHackedPerlScript,2013-02-09 05:45:00,
2013-02-09 00:50:00,11.4,10.9,30.34,NNW,347,0.0,0.0,97,0.00,,,0.00,SomeHackedPerlScript,2013-02-09 05:50:00,
2013-02-09 00:55:00,11.8,11.0,30.34,NNW,347,0.0,0.0,96,0.00,,,0.00,SomeHackedPerlScript,2013-02-09 05:55:00,
2013-02-09 01:00:00,11.7,10.7,30.34,NNW,347,0.0,0.0,95,0.00,,,0.00,SomeHackedPerlScript,2013-02-09 06:00:00,
2013-02-09 01:05:00,11.5,10.4,30.34,NNW,347,0.0,0.0,95,0.00,,,0.00,SomeHackedPerlScript,2013-02-09 06:05:00,
2013-02-09 01:10:00,11.2,10.0,30.34,NNW,347,0.0,0.0,94,0.00,,,0.00,SomeHackedPerlScript,2013-02-09 06:10:00,
2013-02-09 01:15:00,10.8,9.5,30.34,NNW,347,0.0,0.0,94,0.00,,,0.00,SomeHackedPerlScript,2013-02-09 06:15:00,
2013-02-09 01:20:00,10.4,9.2,30.34,NNW,347,0.0,0.0,94,0.00,,,0.00,SomeHackedPerlScript,2013-02-09 06:20:00,
2013-02-09 01:25:00,10.2,8.9,30.34,NNW,347,0.0,0.0,94,0.00,,,0.00,SomeHackedPerlScript,2013-02-09 06:25:00,
2013-02-09 01:30:00,9.9,8.6,30.34,NNW,347,0.0,0.0,94,0.00,,,0.00,SomeHackedPerlScript,2013-02-09 06:30:00,
2013-02-09 01:35:00,9.4,8.1,30.33,NNW,347,0.0,0.0,94,0.00,,,0.00,SomeHackedPerlScript,2013-02-09 06:35:00,
2013-02-09 01:40:00,9.2,7.8,30.33,NNW,347,0.0,0.0,94,0.00,,,0.00,SomeHackedPerlScript,2013-02-09 06:40:00,
2013-02-09 01:45:00,8.9,7.5,30.33,NNW,347,0.0,0.0,93,0.00,,,0.00,SomeHackedPerlScript,2013-02-09 06:45:00,
2013-02-09 01:50:00,8.6,7.2,30.33,NNW,347,0.0,0.0,93,0.00,,,0.00,SomeHackedPerlScript,2013-02-09 06:50:00,
2013-02-09 01:55:00,8.4,7.0,30.34,NNW,347,0.0,0.0,93,0.00,,,0.00,SomeHackedPerlScript,2013-02-09 06:55:00,
2013-02-09 02:00:00,8.3,6.9,30.34,NNW,347,0.0,0.0,93,0.00,,,0.00,SomeHackedPerlScript,2013-02-09 07:00:00,
2013-02-09 02:05:00,8.0,6.6,30.33,NNW,347,0.0,0.0,93,0.00,,,0.00,SomeHackedPerlScript,2013-02-09 07:05:00,
2013-02-09 02:10:00,7.9,6.5,30.33,NNW,347,0.0,0.0,93,0.00,,,0.00,SomeHackedPerlScript,2013-02-09 07:10:00,
2013-02-09 02:15:00,7.7,6.2,30.33,NNW,347,0.0,0.0,93,0.00,,,0.00,SomeHackedPerlScript,2013-02-09 07:15:00,
2013-02-09 02:20:00,7.4,5.9,30.33,NNW,347,0.0,0.0,93,0.00,,,0.00,SomeHackedPerlScript,2013-02-09 07:20:00,
2013-02-09 02:25:00,7.2,5.7,30.33,NNW,347,0.0,0.0,93,0.00,,,0.00,SomeHackedPerlScript,2013-02-09 07:25:00,
2013-02-09 02:30:00,6.8,5.2,30.33,NNW,347,0.0,0.0,93,0.00,,,0.00,SomeHackedPerlScript,2013-02-09 07:30:00,
2013-02-09 02:35:00,6.8,5.2,30.33,NNW,347,0.0,0.0,92,0.00,,,0.00,SomeHackedPerlScript,2013-02-09 07:35:00,
2013-02-09 02:40:00,6.3,4.7,30.34,NNW,347,0.0,0.0,92,0.00,,,0.00,SomeHackedPerlScript,2013-02-09 07:40:00,
2013-02-09 02:45:00,6.2,4.7,30.34,NNW,347,0.0,0.0,93,0.00,,,0.00,SomeHackedPerlScript,2013-02-09 07:45:00,
2013-02-09 02:50:00,6.3,4.9,30.34,NNW,347,0.0,0.0,93,0.00,,,0.00,SomeHackedPerlScript,2013-02-09 07:50:00,
2013-02-09 02:55:00,6.3,4.9,30.34,NNW,347,0.0,0.0,93,0.00,,,0.00,SomeHackedPerlScript,2013-02-09 07:55:00,
2013-02-09 03:00:00,6.2,4.7,30.34,NNW,347,0.0,0.0,93,0.00,,,0.00,SomeHackedPerlScript,2013-02-09 08:00:00,
2013-02-09 03:05:00,5.9,4.4,30.34,NNW,347,0.0,0.0,93,0.00,,,0.00,SomeHackedPerlScript,2013-02-09 08:05:00,
2013-02-09 03:10:00,5.8,4.4,30.34,NNW,347,0.0,0.0,93,0.00,,,0.00,SomeHackedPerlScript,2013-02-09 08:10:00,
2013-02-09 03:15:00,5.7,4.3,30.34,NNW,347,0.0,0.0,93,0.00,,,0.00,SomeHackedPerlScript,2013-02-09 08:15:00,
2013-02-09 03:20:00,5.6,4.1,30.34,NNW,347,0.0,0.0,93,0.00,,,0.00,SomeHackedPerlScript,2013-02-09 08:20:00,
2013-02-09 03:25:00,5.3,3.8,30.34,NNW,347,0.0,0.0,93,0.00,,,0.00,SomeHackedPerlScript,2013-02-09 08:25:00,
2013-02-09 03:30:00,5.2,3.6,30.34,NNW,347,0.0,0.0,93,0.00,,,0.00,SomeHackedPerlScript,2013-02-09 08:30:00,
2013-02-09 03:35:00,4.9,3.3,30.34,NNW,347,0.0,0.0,92,0.00,,,0.00,SomeHackedPerlScript,2013-02-09 08:35:00,
2013-02-09 03:40:00,4.7,3.1,30.34,NNW,347,0.0,0.0,92,0.00,,,0.00,SomeHackedPerlScript,2013-02-09 08:40:00,
2013-02-09 03:45:00,4.6,3.0,30.34,NNW,347,0.0,0.0,93,0.00,,,0.00,SomeHackedPerlScript,2013-02-09 08:45:00,
2013-02-09 03:50:00,4.4,2.8,30.34,NNW,347,0.0,0.0,93,0.00,,,0.00,SomeHackedPerlScript,2013-02-09 08:50:00,
2013-02-09 03:55:00,4.2,2.6,30.34,NNW,347,0.0,0.0,93,0.00,,,0.00,SomeHackedPerlScript,2013-02-09 08:55:00,
2013-02-09 04:00:00,4.2,2.7,30.34,NNW,347,0.0,0.0,93,0.00,,,0.00,SomeHackedPerlScript,2013-02-09 09:00:00,
2013-02-09 04:05:00,4.1,2.6,30.33,NNW,347,0.0,0.0,93,0.00,,,0.00,SomeHackedPerlScript,2013-02-09 09:05:00,
2013-02-09 04:10:00,4.1,2.6,30.33,NNW,347,0.0,0.0,93,0.00,,,0.00,SomeHackedPerlScript,2013-02-09 09:10:00,
2013-02-09 04:15:00,4.0,2.5,30.34,NNW,347,0.0,0.0,93,0.00,,,0.00,SomeHackedPerlScript,2013-02-09 09:15:00,
2013-02-09 04:20:00,3.9,2.4,30.33,NNW,347,0.0,0.0,93,0.00,,,0.00,SomeHackedPerlScript,2013-02-09 09:20:00,
2013-02-09 04:25:00,4.0,2.5,30.34,NNW,347,0.0,0.0,93,0.00,,,0.00,SomeHackedPerlScript,2013-02-09 09:25:00,
2013-02-09 04:30:00,4.1,2.8,30.34,NNW,347,0.0,0.0,94,0.00,,,0.00,SomeHackedPerlScript,2013-02-09 09:30:00,
2013-02-09 04:35:00,4.0,2.6,30.34,NNW,347,0.0,0.0,93,0.00,,,0.00,SomeHackedPerlScript,2013-02-09 09:35:00,
2013-02-09 04:40:00,4.0,2.6,30.34,NNW,347,0.0,0.0,93,0.00,,,0.00,SomeHackedPerlScript,2013-02-09 09:40:00,
2013-02-09 04:45:00,4.0,2.5,30.34,NNW,347,0.0,0.0,93,0.00,,,0.00,SomeHackedPerlScript,2013-02-09 09:45:00,
2013-02-09 04:50:00,3.8,2.3,30.34,NNW,347,0.0,0.0,93,0.00,,,0.00,SomeHackedPerlScript,2013-02-09 09:50:00,
2013-02-09 04:55:00,3.7,2.2,30.34,NNW,347,0.0,0.0,93,0.00,,,0.00,SomeHackedPerlScript,2013-02-09 09:55:00,
2013-02-09 05:00:00,3.6,2.0,30.34,NNW,347,0.0,0.0,93,0.00,,,0.00,SomeHackedPerlScript,2013-02-09 10:00:00,
2013-02-09 05:05:00,3.4,1.9,30.34,NNW,347,0.0,0.0,93,0.00,,,0.00,SomeHackedPerlScript,2013-02-09 10:05:00,
2013-02-09 05:10:00,3.4,1.9,30.34,NNW,347,0.0,0.0,93,0.00,,,0.00,SomeHackedPerlScript,2013-02-09 10:10:00,
2013-02-09 05:15:00,3.2,1.6,30.34,NNW,347,0.0,0.0,93,0.00,,,0.00,SomeHackedPerlScript,2013-02-09 10:15:00,
2013-02-09 05:20:00,3.1,1.5,30.34,NNW,347,0.0,0.0,92,0.00,,,0.00,SomeHackedPerlScript,2013-02-09 10:20:00,
2013-02-09 05:25:00,3.1,1.7,30.35,NNW,347,0.0,0.0,93,0.00,,,0.00,SomeHackedPerlScript,2013-02-09 10:25:00,
2013-02-09 05:30:00,3.5,2.2,30.35,NNW,347,0.0,0.0,94,0.00,,,0.00,SomeHackedPerlScript,2013-02-09 10:30:00,
2013-02-09 05:35:00,3.7,2.5,30.35,NNW,347,0.0,0.0,94,0.00,,,0.00,SomeHackedPerlScript,2013-02-09 10:35:00,
2013-02-09 05:40:00,4.1,2.9,30.35,NNW,347,0.0,0.0,94,0.00,,,0.00,SomeHackedPerlScript,2013-02-09 10:40:00,
2013-02-09 05:45:00,4.1,2.8,30.35,NNW,347,0.0,0.0,94,0.00,,,0.00,SomeHackedPerlScript,2013-02-09 10:45:00,
2013-02-09 05:50:00,4.2,2.8,30.35,NNW,347,0.0,0.0,93,0.00,,,0.00,SomeHackedPerlScript,2013-02-09 10:50:00,
2013-02-09 05:55:00,4.0,2.5,30.35,NNW,347,0.0,0.0,93,0.00,,,0.00,SomeHackedPerlScript,2013-02-09 10:55:00,
2013-02-09 06:00:00,3.7,2.1,30.35,NNW,347,0.0,0.0,92,0.00,,,0.00,SomeHackedPerlScript,2013-02-09 11:00:00,
2013-02-09 06:05:00,3.5,1.8,30.35,NNW,347,0.0,0.0,92,0.00,,,0.00,SomeHackedPerlScript,2013-02-09 11:05:00,
2013-02-09 06:10:00,3.2,1.5,30.35,NNW,347,0.0,0.0,92,0.00,,,0.00,SomeHackedPerlScript,2013-02-09 11:10:00,
2013-02-09 06:15:00,2.9,1.2,30.35,NNW,347,0.0,0.0,92,0.00,,,0.00,SomeHackedPerlScript,2013-02-09 11:15:00,
2013-02-09 06:20:00,2.7,1.0,30.35,NNW,347,0.0,0.0,92,0.00,,,0.00,SomeHackedPerlScript,2013-02-09 11:20:00,
2013-02-09 06:25:00,2.6,0.9,30.35,NNW,347,0.0,0.0,92,0.00,,,0.00,SomeHackedPerlScript,2013-02-09 11:25:00,
2013-02-09 06:30:00,2.4,0.6,30.35,NNW,347,0.0,0.0,92,0.00,,,0.00,SomeHackedPerlScript,2013-02-09 11:30:00,
2013-02-09 06:35:00,2.1,0.3,30.35,NNW,347,0.0,0.0,92,0.00,,,0.00,SomeHackedPerlScript,2013-02-09 11:35:00,
2013-02-09 06:40:00,2.0,0.2,30.36,NNW,347,0.0,0.0,92,0.00,,,0.00,SomeHackedPerlScript,2013-02-09 11:40:00,
2013-02-09 06:45:00,1.8,0.0,30.36,NNW,347,0.0,0.0,92,0.00,,,0.00,SomeHackedPerlScript,2013-02-09 11:45:00,
2013-02-09 06:50:00,1.7,0.0,30.36,NNW,347,0.0,0.0,92,0.00,,,0.00,SomeHackedPerlScript,2013-02-09 11:50:00,
2013-02-09 06:55:00,1.5,-0.2,30.35,NNW,347,0.0,0.0,92,0.00,,,0.00,SomeHackedPerlScript,2013-02-09 11:55:00,
2013-02-09 07:00:00,1.4,-0.3,30.36,NNW,347,0.0,0.0,92,0.00,,,0.00,SomeHackedPerlScript,2013-02-09 12:00:00,
2013-02-09 07:05:00,1.3,-0.5,30.36,NNW,347,0.0,0.0,92,0.00,,,0.00,SomeHackedPerlScript,2013-02-09 12:05:00,
2013-02-09 07:10:00,1.2,-0.6,30.36,NNW,347,0.0,0.0,92,0.00,,,0.00,SomeHackedPerlScript,2013-02-09 12:10:00,
2013-02-09 07:15:00,1.0,-0.8,30.35,NNW,347,0.0,0.0,92,0.00,,,0.00,SomeHackedPerlScript,2013-02-09 12:15:00,
2013-02-09 07:20:00,0.8,-1.0,30.36,NNW,347,0.0,0.0,91,0.00,,,0.00,SomeHackedPerlScript,2013-02-09 12:20:00,
2013-02-09 07:25:00,0.7,-1.1,30.36,NNW,347,0.0,0.0,92,0.00,,,0.00,SomeHackedPerlScript,2013-02-09 12:25:00,
2013-02-09 07:30:00,0.6,-1.2,30.36,NNW,347,0.0,0.0,91,0.00,,,0.00,SomeHackedPerlScript,2013-02-09 12:30:00,
2013-02-09 07:35:00,0.5,-1.3,30.36,NNW,347,0.0,0.0,91,0.00,,,0.00,SomeHackedPerlScript,2013-02-09 12:35:00,
2013-02-09 07:40:00,0.4,-1.3,30.36,NNW,347,0.0,0.0,92,0.00,,,0.00,SomeHackedPerlScript,2013-02-09 12:40:00,
2013-02-09 07:45:00,0.6,-1.1,30.36,NNW,347,0.0,0.0,92,0.00,,,0.00,SomeHackedPerlScript,2013-02-09 12:45:00,
2013-02-09 07:50:00,0.6,-1.1,30.36,NNW,347,0.0,0.0,92,0.00,,,0.00,SomeHackedPerlScript,2013-02-09 12:50:00,
2013-02-09 07:55:00,0.6,-1.1,30.36,NNW,347,0.0,0.0,92,0.00,,,0.00,SomeHackedPerlScript,2013-02-09 12:55:00,
2013-02-09 08:00:00,0.5,-1.1,30.37,NNW,347,0.0,0.0,92,0.00,,,0.00,SomeHackedPerlScript,2013-02-09 13:00:00,
2013-02-09 08:05:00,0.8,-0.7,30.37,NNW,347,0.0,0.0,93,0.00,,,0.00,SomeHackedPerlScript,2013-02-09 13:05:00,
2013-02-09 08:10:00,1.1,-0.4,30.36,NNW,347,0.0,0.0,93,0.00,,,0.00,SomeHackedPerlScript,2013-02-09 13:10:00,
2013-02-09 08:15:00,1.3,-0.2,30.36,NNW,347,0.0,0.0,93,0.00,,,0.00,SomeHackedPerlScript,2013-02-09 13:15:00,
2013-02-09 08:20:00,1.6,0.1,30.37,NNW,347,0.0,0.0,93,0.00,,,0.00,SomeHackedPerlScript,2013-02-09 13:20:00,
2013-02-09 08:25:00,1.9,0.4,30.37,NNW,347,0.0,0.0,93,0.00,,,0.00,SomeHackedPerlScript,2013-02-09 13:25:00,
2013-02-09 08:30:00,2.0,0.5,30.37,NNW,347,0.0,0.0,93,0.00,,,0.00,SomeHackedPerlScript,2013-02-09 13:30:00,
2013-02-09 08:35:00,2.5,1.1,30.37,NNW,347,0.0,0.0,93,0.00,,,0.00,SomeHackedPerlScript,2013-02-09 13:35:00,
2013-02-09 08:40:00,2.9,1.5,30.37,NNW,347,0.0,0.0,93,0.00,,,0.00,SomeHackedPerlScript,2013-02-09 13:40:00,
2013-02-09 08:45:00,3.5,2.4,30.38,NNW,347,0.0,0.0,95,0.00,,,0.00,SomeHackedPerlScript,2013-02-09 13:45:00,
2013-02-09 08:50:00,4.2,3.2,30.37,NNW,347,0.0,0.0,95,0.00,,,0.00,SomeHackedPerlScript,2013-02-09 13:50:00,
2013-02-09 08:55:00,5.1,4.1,30.37,NNW,347,0.0,0.0,95,0.00,,,0.00,SomeHackedPerlScript,2013-02-09 13:55:00,
2013-02-09 09:00:00,5.9,4.9,30.37,NNW,347,0.0,0.0,95,0.00,,,0.00,SomeHackedPerlScript,2013-02-09 14:00:00,
2013-02-09 09:05:00,6.6,5.7,30.37,NNW,347,0.0,0.0,96,0.00,,,0.00,SomeHackedPerlScript,2013-02-09 14:05:00,
2013-02-09 09:10:00,7.3,6.4,30.37,NNW,347,0.0,0.0,96,0.00,,,0.00,SomeHackedPerlScript,2013-02-09 14:10:00,
2013-02-09 09:15:00,7.7,6.7,30.37,NNW,347,0.0,0.0,95,0.00,,,0.00,SomeHackedPerlScript,2013-02-09 14:15:00,
2013-02-09 09:20:00,8.0,7.0,30.37,NNW,347,0.0,0.0,95,0.00,,,0.00,SomeHackedPerlScript,2013-02-09 14:20:00,
2013-02-09 09:25:00,8.8,8.1,30.38,NNW,347,0.0,0.0,96,0.00,,,0.00,SomeHackedPerlScript,2013-02-09 14:25:00,
2013-02-09 09:30:00,9.7,8.9,30.37,NNW,347,0.0,0.0,96,0.00,,,0.00,SomeHackedPerlScript,2013-02-09 14:30:00,
2013-02-09 09:35:00,10.6,9.9,30.38,NNW,347,0.0,0.0,97,0.00,,,0.00,SomeHackedPerlScript,2013-02-09 14:35:00,
2013-02-09 09:40:00,11.6,10.8,30.37,NNW,347,0.0,0.0,96,0.00,,,0.00,SomeHackedPerlScript,2013-02-09 14:40:00,
2013-02-09 09:45:00,12.4,11.6,30.37,NNW,347,0.0,0.0,96,0.00,,,0.00,SomeHackedPerlScript,2013-02-09 14:45:00,
2013-02-09 09:50:00,12.9,11.9,30.38,NNW,347,0.0,0.0,95,0.00,,,0.00,SomeHackedPerlScript,2013-02-09 14:50:00,
2013-02-09 09:55:00,13.6,12.6,30.38,NNW,347,0.0,0.0,95,0.00,,,0.00,SomeHackedPerlScript,2013-02-09 14:55:00,
2013-02-09 10:00:00,14.3,13.3,30.38,NNW,347,0.0,0.0,95,0.00,,,0.00,SomeHackedPerlScript,2013-02-09 15:00:00,
2013-02-09 10:05:00,15.3,14.4,30.37,NNW,347,0.0,0.0,96,0.00,,,0.00,SomeHackedPerlScript,2013-02-09 15:05:00,
2013-02-09 10:10:00,16.2,14.3,30.37,NNW,347,0.0,0.0,92,0.00,,,0.00,SomeHackedPerlScript,2013-02-09 15:10:00,
2013-02-09 10:15:00,16.7,14.1,30.37,NNW,347,0.0,0.0,89,0.00,,,0.00,SomeHackedPerlScript,2013-02-09 15:15:00,
2013-02-09 10:20:00,17.2,14.1,30.37,NNW,347,0.0,0.0,87,0.00,,,0.00,SomeHackedPerlScript,2013-02-09 15:20:00,
2013-02-09 10:25:00,17.5,13.9,30.37,SE,146,3.0,3.8,85,0.00,,,0.00,SomeHackedPerlScript,2013-02-09 15:25:00,
2013-02-09 10:30:00,18.1,14.1,30.37,South,179,4.9,4.9,84,0.00,,,0.00,SomeHackedPerlScript,2013-02-09 15:30:00,
2013-02-09 10:35:00,18.1,13.6,30.37,South,182,4.7,6.4,82,0.00,,,0.00,SomeHackedPerlScript,2013-02-09 15:35:00,
2013-02-09 10:40:00,18.3,14.0,30.37,SSE,166,2.4,6.6,83,0.00,,,0.00,SomeHackedPerlScript,2013-02-09 15:40:00,
2013-02-09 10:45:00,18.5,13.9,30.36,South,186,0.0,4.5,82,0.00,,,0.00,SomeHackedPerlScript,2013-02-09 15:45:00,
2013-02-09 10:50:00,18.7,13.8,30.36,SE,124,0.0,1.6,80,0.00,,,0.00,SomeHackedPerlScript,2013-02-09 15:50:00,
2013-02-09 10:55:00,18.6,13.9,30.37,South,169,0.0,5.2,81,0.00,,,0.00,SomeHackedPerlScript,2013-02-09 15:55:00,
2013-02-09 11:00:00,18.6,13.1,30.37,ESE,104,0.0,3.1,78,0.00,,,0.00,SomeHackedPerlScript,2013-02-09 16:00:00,
2013-02-09 11:05:00,18.6,13.6,30.37,ESE,104,0.0,0.0,80,0.00,,,0.00,SomeHackedPerlScript,2013-02-09 16:05:00,
2013-02-09 11:10:00,19.2,14.1,30.37,ESE,104,0.0,0.0,80,0.00,,,0.00,SomeHackedPerlScript,2013-02-09 16:10:00,
2013-02-09 11:15:00,19.8,14.1,30.37,SSW,201,0.0,5.1,78,0.00,,,0.00,SomeHackedPerlScript,2013-02-09 16:15:00,
2013-02-09 11:20:00,20.2,14.4,30.37,SSW,208,0.0,5.5,77,0.00,,,0.00,SomeHackedPerlScript,2013-02-09 16:20:00,
2013-02-09 11:25:00,20.4,14.4,30.37,SE,138,1.9,6.0,77,0.00,,,0.00,SomeHackedPerlScript,2013-02-09 16:25:00,
2013-02-09 11:30:00,20.6,14.8,30.37,South,179,2.3,7.9,77,0.00,,,0.00,SomeHackedPerlScript,2013-02-09 16:30:00,
2013-02-09 11:35:00,20.5,14.2,30.37,South,179,1.6,6.7,76,0.00,,,0.00,SomeHackedPerlScript,2013-02-09 16:35:00,
2013-02-09 11:40:00,20.3,14.4,30.37,SSE,159,3.5,7.2,77,0.00,,,0.00,SomeHackedPerlScript,2013-02-09 16:40:00,
2013-02-09 11:45:00,20.3,14.7,30.37,South,187,4.4,7.6,78,0.00,,,0.00,SomeHackedPerlScript,2013-02-09 16:45:00,
2013-02-09 11:50:00,20.6,14.9,30.37,South,190,2.1,8.4,78,0.00,,,0.00,SomeHackedPerlScript,2013-02-09 16:50:00,
2013-02-09 11:55:00,20.9,14.5,30.37,SE,144,5.1,7.3,76,0.00,,,0.00,SomeHackedPerlScript,2013-02-09 16:55:00,
2013-02-09 12:00:00,20.9,14.9,30.37,South,179,6.3,7.6,77,0.00,,,0.00,SomeHackedPerlScript,2013-02-09 17:00:00,
2013-02-09 12:05:00,20.7,15.1,30.37,South,184,2.8,10.6,78,0.00,,,0.00,SomeHackedPerlScript,2013-02-09 17:05:00,
2013-02-09 12:10:00,21.0,15.1,30.37,SE,134,0.0,6.7,77,0.00,,,0.00,SomeHackedPerlScript,2013-02-09 17:10:00,
2013-02-09 12:15:00,21.4,15.0,30.37,SSE,160,4.1,6.5,76,0.00,,,0.00,SomeHackedPerlScript,2013-02-09 17:15:00,
2013-02-09 12:20:00,21.8,15.5,30.37,SE,127,1.6,6.5,76,0.00,,,0.00,SomeHackedPerlScript,2013-02-09 17:20:00,
2013-02-09 12:25:00,22.2,15.2,30.36,SSE,163,4.3,6.6,74,0.00,,,0.00,SomeHackedPerlScript,2013-02-09 17:25:00,
2013-02-09 12:30:00,22.2,15.8,30.35,SE,143,4.7,9.9,76,0.00,,,0.00,SomeHackedPerlScript,2013-02-09 17:30:00,
2013-02-09 12:35:00,22.1,15.6,30.36,ESE,119,5.8,7.2,75,0.00,,,0.00,SomeHackedPerlScript,2013-02-09 17:35:00,
2013-02-09 12:40:00,21.8,15.6,30.35,ESE,109,4.3,8.6,76,0.00,,,0.00,SomeHackedPerlScript,2013-02-09 17:40:00,
2013-02-09 12:45:00,22.0,15.7,30.35,SSE,148,2.8,9.0,76,0.00,,,0.00,SomeHackedPerlScript,2013-02-09 17:45:00,
2013-02-09 12:50:00,22.3,16.1,30.35,SSE,167,6.2,8.2,76,0.00,,,0.00,SomeHackedPerlScript,2013-02-09 17:50:00,
2013-02-09 12:55:00,22.6,16.2,30.35,SE,131,5.5,9.8,76,0.00,,,0.00,SomeHackedPerlScript,2013-02-09 17:55:00,
2013-02-09 13:00:00,22.7,16.3,30.34,South,176,0.7,8.9,76,0.00,,,0.00,SomeHackedPerlScript,2013-02-09 18:00:00,
2013-02-09 13:05:00,22.9,16.1,30.34,SSW,194,3.4,7.4,74,0.00,,,0.00,SomeHackedPerlScript,2013-02-09 18:05:00,
2013-02-09 13:10:00,23.1,16.5,30.33,South,173,3.3,7.0,75,0.00,,,0.00,SomeHackedPerlScript,2013-02-09 18:10:00,
2013-02-09 13:15:00,23.1,16.2,30.33,SE,143,2.8,9.2,74,0.00,,,0.00,SomeHackedPerlScript,2013-02-09 18:15:00,
2013-02-09 13:20:00,23.0,16.2,30.32,SSE,161,7.7,9.1,74,0.00,,,0.00,SomeHackedPerlScript,2013-02-09 18:20:00,
2013-02-09 13:25:00,22.9,16.7,30.32,SE,143,4.2,9.5,76,0.00,,,0.00,SomeHackedPerlScript,2013-02-09 18:25:00,
2013-02-09 13:30:00,22.7,16.1,30.32,SE,142,2.2,9.6,75,0.00,,,0.00,SomeHackedPerlScript,2013-02-09 18:30:00,
2013-02-09 13:35:00,23.0,16.9,30.32,SSE,152,5.3,7.9,77,0.00,,,0.00,SomeHackedPerlScript,2013-02-09 18:35:00,
2013-02-09 13:40:00,23.1,16.6,30.33,South,177,3.4,10.0,75,0.00,,,0.00,SomeHackedPerlScript,2013-02-09 18:40:00,
2013-02-09 13:45:00,23.6,16.3,30.32,South,179,5.0,8.0,73,0.00,,,0.00,SomeHackedPerlScript,2013-02-09 18:45:00,
2013-02-09 13:50:00,23.6,16.6,30.32,SSW,201,3.4,8.1,74,0.00,,,0.00,SomeHackedPerlScript,2013-02-09 18:50:00,
2013-02-09 13:55:00,23.7,16.4,30.32,South,187,1.0,7.4,73,0.00,,,0.00,SomeHackedPerlScript,2013-02-09 18:55:00,
2013-02-09 14:00:00,24.1,16.9,30.31,ESE,111,0.0,5.6,73,0.00,,,0.00,SomeHackedPerlScript,2013-02-09 19:00:00,
2013-02-09 14:05:00,24.2,17.1,30.32,ESE,118,0.0,4.8,74,0.00,,,0.00,SomeHackedPerlScript,2013-02-09 19:05:00,
2013-02-09 14:10:00,24.3,16.8,30.31,ESE,121,0.6,6.2,72,0.00,,,0.00,SomeHackedPerlScript,2013-02-09 19:10:00,
2013-02-09 14:15:00,24.3,17.1,30.31,East,99,0.8,5.8,73,0.00,,,0.00,SomeHackedPerlScript,2013-02-09 19:15:00,
2013-02-09 14:20:00,24.4,17.1,30.31,SSE,151,5.3,7.1,73,0.00,,,0.00,SomeHackedPerlScript,2013-02-09 19:20:00,
2013-02-09 14:25:00,24.6,17.5,30.30,ESE,112,0.0,7.6,74,0.00,,,0.00,SomeHackedPerlScript,2013-02-09 19:25:00,
2013-02-09 14:30:00,24.5,17.0,30.30,South,175,3.3,4.7,72,0.00,,,0.00,SomeHackedPerlScript,2013-02-09 19:30:00,
2013-02-09 14:35:00,24.5,17.1,30.30,SSE,163,0.0,7.4,72,0.00,,,0.00,SomeHackedPerlScript,2013-02-09 19:35:00,
2013-02-09 14:40:00,24.7,17.1,30.30,South,169,0.0,4.5,72,0.00,,,0.00,SomeHackedPerlScript,2013-02-09 19:40:00,
2013-02-09 14:45:00,24.9,18.0,30.29,East,100,0.0,6.0,74,0.00,,,0.00,SomeHackedPerlScript,2013-02-09 19:45:00,
2013-02-09 14:50:00,24.9,17.3,30.29,South,170,4.8,7.4,72,0.00,,,0.00,SomeHackedPerlScript,2013-02-09 19:50:00,
2013-02-09 14:55:00,24.8,17.5,30.29,South,191,1.9,6.4,73,0.00,,,0.00,SomeHackedPerlScript,2013-02-09 19:55:00,
2013-02-09 15:00:00,24.7,17.2,30.29,ESE,123,6.0,6.3,72,0.00,,,0.00,SomeHackedPerlScript,2013-02-09 20:00:00,
2013-02-09 15:05:00,24.7,17.1,30.29,NE,49,0.7,7.7,72,0.00,,,0.00,SomeHackedPerlScript,2013-02-09 20:05:00,
2013-02-09 15:10:00,24.9,17.2,30.29,South,180,3.5,7.6,72,0.00,,,0.00,SomeHackedPerlScript,2013-02-09 20:10:00,
2013-02-09 15:15:00,25.0,17.5,30.28,South,170,0.5,6.6,72,0.00,,,0.00,SomeHackedPerlScript,2013-02-09 20:15:00,
2013-02-09 15:20:00,25.2,17.4,30.28,SW,225,0.6,6.2,71,0.00,,,0.00,SomeHackedPerlScript,2013-02-09 20:20:00,
2013-02-09 15:25:00,25.0,17.2,30.28,SSW,213,3.0,5.0,72,0.00,,,0.00,SomeHackedPerlScript,2013-02-09 20:25:00,
2013-02-09 15:30:00,24.8,17.0,30.27,SE,138,0.7,7.6,71,0.00,,,0.00,SomeHackedPerlScript,2013-02-09 20:30:00,
2013-02-09 15:35:00,24.6,16.9,30.27,SE,129,0.6,7.7,72,0.00,,,0.00,SomeHackedPerlScript,2013-02-09 20:35:00,
2013-02-09 15:40:00,24.8,17.6,30.27,ESE,114,2.0,6.9,73,0.00,,,0.00,SomeHackedPerlScript,2013-02-09 20:40:00,
2013-02-09 15:45:00,24.8,17.2,30.27,ESE,105,0.0,5.8,72,0.00,,,0.00,SomeHackedPerlScript,2013-02-09 20:45:00,
2013-02-09 15:50:00,24.7,16.9,30.27,SE,132,1.2,4.5,71,0.00,,,0.00,SomeHackedPerlScript,2013-02-09 20:50:00,
2013-02-09 15:55:00,24.8,17.5,30.27,SSE,162,0.0,7.1,73,0.00,,,0.00,SomeHackedPerlScript,2013-02-09 20:55:00,
2013-02-09 16:00:00,25.0,17.6,30.27,SE,131,0.0,3.1,73,0.00,,,0.00,SomeHackedPerlScript,2013-02-09 21:00:00,
2013-02-09 16:05:00,25.2,17.5,30.27,SSE,151,0.0,4.8,72,0.00,,,0.00,SomeHackedPerlScript,2013-02-09 21:05:00,
2013-02-09 16:10:00,25.4,17.8,30.27,East,100,0.0,4.3,72,0.00,,,0.00,SomeHackedPerlScript,2013-02-09 21:10:00,
2013-02-09 16:15:00,25.5,17.7,30.28,East,100,0.0,0.0,71,0.00,,,0.00,SomeHackedPerlScript,2013-02-09 21:15:00,
2013-02-09 16:20:00,25.4,17.5,30.27,SE,128,0.8,4.5,71,0.00,,,0.00,SomeHackedPerlScript,2013-02-09 21:20:00,
2013-02-09 16:25:00,25.6,17.5,30.27,ESE,121,0.0,5.1,71,0.00,,,0.00,SomeHackedPerlScript,2013-02-09 21:25:00,
2013-02-09 16:30:00,25.6,17.6,30.27,ESE,117,2.7,3.0,71,0.00,,,0.00,SomeHackedPerlScript,2013-02-09 21:30:00,
2013-02-09 16:35:00,25.4,17.1,30.27,SSE,153,2.9,5.1,70,0.00,,,0.00,SomeHackedPerlScript,2013-02-09 21:35:00,
2013-02-09 16:40:00,25.3,17.2,30.27,East,97,0.0,3.0,71,0.00,,,0.00,SomeHackedPerlScript,2013-02-09 21:40:00,
2013-02-09 16:45:00,25.3,17.2,30.26,SSE,151,0.0,3.2,71,0.00,,,0.00,SomeHackedPerlScript,2013-02-09 21:45:00,
2013-02-09 16:50:00,25.2,17.4,30.26,SSE,155,3.4,3.4,71,0.00,,,0.00,SomeHackedPerlScript,2013-02-09 21:50:00,
2013-02-09 16:55:00,25.0,17.1,30.27,SSE,151,0.0,4.0,71,0.00,,,0.00,SomeHackedPerlScript,2013-02-09 21:55:00,
2013-02-09 17:00:00,24.7,17.0,30.27,SSE,151,0.0,0.5,72,0.00,,,0.00,SomeHackedPerlScript,2013-02-09 22:00:00,
2013-02-09 17:05:00,24.6,17.0,30.27,SSE,158,0.0,2.8,72,0.00,,,0.00,SomeHackedPerlScript,2013-02-09 22:05:00,
2013-02-09 17:10:00,24.4,17.0,30.26,South,186,3.0,3.8,73,0.00,,,0.00,SomeHackedPerlScript,2013-02-09 22:10:00,
2013-02-09 17:15:00,24.1,16.9,30.26,South,180,0.0,3.3,73,0.00,,,0.00,SomeHackedPerlScript,2013-02-09 22:15:00,
2013-02-09 17:20:00,23.8,17.1,30.26,South,180,0.0,0.0,75,0.00,,,0.00,SomeHackedPerlScript,2013-02-09 22:20:00,
2013-02-09 17:25:00,23.6,17.1,30.26,South,180,0.0,0.0,75,0.00,,,0.00,SomeHackedPerlScript,2013-02-09 22:25:00,
2013-02-09 17:30:00,23.4,17.0,30.25,South,180,0.0,0.0,76,0.00,,,0.00,SomeHackedPerlScript,2013-02-09 22:30:00,
2013-02-09 17:35:00,23.1,17.0,30.25,South,179,0.0,2.6,77,0.00,,,0.00,SomeHackedPerlScript,2013-02-09 22:35:00,
2013-02-09 17:39:00,22.9,17.0,30.25,South,169,0.0,2.2,77,0.00,,,0.00,SomeHackedPerlScript,2013-02-09 22:39:00,
2013-02-09 17:45:00,22.8,17.0,30.25,ESE,114,0.0,4.3,78,0.00,,,0.00,SomeHackedPerlScript,2013-02-09 22:45:00,
2013-02-09 17:50:00,22.7,17.0,30.25,ESE,108,0.0,2.8,78,0.00,,,0.00,SomeHackedPerlScript,2013-02-09 22:50:00,
2013-02-09 17:55:00,22.7,17.0,30.25,SE,131,0.0,4.0,78,0.00,,,0.00,SomeHackedPerlScript,2013-02-09 22:55:00,
2013-02-09 18:00:00,22.4,16.6,30.25,SE,131,0.0,0.0,78,0.00,,,0.00,SomeHackedPerlScript,2013-02-09 23:00:00,
2013-02-09 18:05:00,21.9,16.2,30.25,SE,131,0.0,0.0,78,0.00,,,0.00,SomeHackedPerlScript,2013-02-09 23:05:00,
2013-02-09 18:10:00,21.6,16.1,30.25,SE,131,0.0,0.0,78,0.00,,,0.00,SomeHackedPerlScript,2013-02-09 23:10:00,
2013-02-09 18:15:00,21.2,15.9,30.25,SE,131,0.0,0.0,79,0.00,,,0.00,SomeHackedPerlScript,2013-02-09 23:15:00,
2013-02-09 18:20:00,20.8,15.7,30.25,SE,131,0.0,0.0,80,0.00,,,0.00,SomeHackedPerlScript,2013-02-09 23:20:00,
2013-02-09 18:25:00,20.6,15.9,30.25,SE,131,0.0,0.0,81,0.00,,,0.00,SomeHackedPerlScript,2013-02-09 23:25:00,
2013-02-09 18:30:00,20.1,15.7,30.25,SE,131,0.0,0.0,82,0.00,,,0.00,SomeHackedPerlScript,2013-02-09 23:30:00,
2013-02-09 18:35:00,19.9,15.6,30.25,SE,131,0.0,0.0,83,0.00,,,0.00,SomeHackedPerlScript,2013-02-09 23:35:00,
2013-02-09 18:40:00,19.6,15.4,30.25,SE,131,0.0,0.0,83,0.00,,,0.00,SomeHackedPerlScript,2013-02-09 23:40:00,
2013-02-09 18:45:00,19.5,15.4,30.25,SE,131,0.0,0.0,83,0.00,,,0.00,SomeHackedPerlScript,2013-02-09 23:45:00,
2013-02-09 18:50:00,19.2,15.4,30.25,SE,131,0.0,0.0,84,0.00,,,0.00,SomeHackedPerlScript,2013-02-09 23:50:00,
2013-02-09 18:55:00,19.1,15.5,30.25,SE,131,0.0,0.0,85,0.00,,,0.00,SomeHackedPerlScript,2013-02-09 23:55:00,
2013-02-09 19:00:00,19.0,15.5,30.24,SE,131,0.0,0.0,86,0.00,,,0.00,SomeHackedPerlScript,2013-02-10 00:00:00,
2013-02-09 19:05:00,18.7,15.3,30.24,SE,131,0.0,0.0,86,0.00,,,0.00,SomeHackedPerlScript,2013-02-10 00:05:00,
2013-02-09 19:10:00,18.5,15.3,30.24,SE,131,0.0,0.0,87,0.00,,,0.00,SomeHackedPerlScript,2013-02-10 00:10:00,
2013-02-09 19:15:00,18.5,15.4,30.24,SE,131,0.0,0.0,87,0.00,,,0.00,SomeHackedPerlScript,2013-02-10 00:15:00,
2013-02-09 19:20:00,18.4,15.4,30.23,SE,131,0.0,0.0,87,0.00,,,0.00,SomeHackedPerlScript,2013-02-10 00:20:00,
2013-02-09 19:25:00,18.3,15.4,30.23,SE,131,0.0,0.0,88,0.00,,,0.00,SomeHackedPerlScript,2013-02-10 00:25:00,
2013-02-09 19:30:00,18.2,15.4,30.23,SE,131,0.0,0.0,88,0.00,,,0.00,SomeHackedPerlScript,2013-02-10 00:30:00,
2013-02-09 19:35:00,18.3,15.6,30.23,SE,131,0.0,0.0,89,0.00,,,0.00,SomeHackedPerlScript,2013-02-10 00:35:00,
2013-02-09 19:40:00,18.0,15.4,30.23,SE,131,0.0,0.0,89,0.00,,,0.00,SomeHackedPerlScript,2013-02-10 00:40:00,
2013-02-09 19:45:00,18.1,15.6,30.22,SE,131,0.0,0.0,89,0.00,,,0.00,SomeHackedPerlScript,2013-02-10 00:45:00,
2013-02-09 19:50:00,17.8,15.4,30.22,SE,131,0.0,0.0,90,0.00,,,0.00,SomeHackedPerlScript,2013-02-10 00:50:00,
2013-02-09 19:54:00,17.8,15.4,30.22,SE,131,0.0,0.0,90,0.00,,,0.00,SomeHackedPerlScript,2013-02-10 00:54:00,
2013-02-09 20:00:00,17.8,15.5,30.22,SE,131,0.0,0.0,90,0.00,,,0.00,SomeHackedPerlScript,2013-02-10 01:00:00,
2013-02-09 20:04:00,17.8,15.5,30.22,SE,131,0.0,0.0,90,0.00,,,0.00,SomeHackedPerlScript,2013-02-10 01:04:00,
2013-02-09 20:09:00,17.6,15.3,30.22,SE,131,0.0,0.0,90,0.00,,,0.00,SomeHackedPerlScript,2013-02-10 01:09:00,
2013-02-09 20:14:00,17.5,15.2,30.22,SE,131,0.0,0.0,90,0.00,,,0.00,SomeHackedPerlScript,2013-02-10 01:14:00,
2013-02-09 20:19:00,17.3,15.1,30.22,SE,131,0.0,0.0,90,0.00,,,0.00,SomeHackedPerlScript,2013-02-10 01:19:00,
2013-02-09 20:24:00,17.1,14.9,30.22,SE,131,0.0,0.0,90,0.00,,,0.00,SomeHackedPerlScript,2013-02-10 01:24:00,
2013-02-09 20:30:00,16.9,14.7,30.22,SE,131,0.0,0.0,91,0.00,,,0.00,SomeHackedPerlScript,2013-02-10 01:30:00,
2013-02-09 20:35:00,17.0,14.9,30.22,SE,131,0.0,0.0,91,0.00,,,0.00,SomeHackedPerlScript,2013-02-10 01:35:00,
2013-02-09 20:40:00,17.0,14.9,30.22,ESE,115,0.0,2.7,91,0.00,,,0.00,SomeHackedPerlScript,2013-02-10 01:40:00,
2013-02-09 20:45:00,17.1,15.0,30.22,ESE,115,0.0,0.0,91,0.00,,,0.00,SomeHackedPerlScript,2013-02-10 01:45:00,
2013-02-09 20:50:00,16.9,14.9,30.22,ESE,115,0.0,0.0,91,0.00,,,0.00,SomeHackedPerlScript,2013-02-10 01:50:00,
2013-02-09 20:55:00,16.7,14.6,30.22,ESE,115,0.0,0.0,91,0.00,,,0.00,SomeHackedPerlScript,2013-02-10 01:55:00,
2013-02-09 21:00:00,16.5,14.4,30.22,ESE,115,0.0,0.0,91,0.00,,,0.00,SomeHackedPerlScript,2013-02-10 02:00:00,
2013-02-09 21:05:00,16.2,14.1,30.21,ESE,115,0.0,0.0,91,0.00,,,0.00,SomeHackedPerlScript,2013-02-10 02:05:00,
2013-02-09 21:10:00,16.0,13.9,30.21,ESE,115,0.0,0.0,91,0.00,,,0.00,SomeHackedPerlScript,2013-02-10 02:10:00,
2013-02-09 21:15:00,15.7,13.6,30.21,SE,127,0.0,2.7,91,0.00,,,0.00,SomeHackedPerlScript,2013-02-10 02:15:00,
2013-02-09 21:20:00,15.3,13.3,30.21,SE,127,0.0,0.0,91,0.00,,,0.00,SomeHackedPerlScript,2013-02-10 02:20:00,
2013-02-09 21:25:00,15.1,13.1,30.21,SE,127,0.0,0.0,91,0.00,,,0.00,SomeHackedPerlScript,2013-02-10 02:25:00,
2013-02-09 21:30:00,14.9,13.0,30.21,SE,127,0.0,0.0,91,0.00,,,0.00,SomeHackedPerlScript,2013-02-10 02:30:00,
2013-02-09 21:35:00,14.7,12.9,30.21,SE,127,0.0,0.0,92,0.00,,,0.00,SomeHackedPerlScript,2013-02-10 02:35:00,
2013-02-09 21:40:00,14.5,12.7,30.21,SE,127,0.0,0.0,92,0.00,,,0.00,SomeHackedPerlScript,2013-02-10 02:40:00,
2013-02-09 21:44:00,14.3,12.6,30.21,SE,127,0.0,0.0,92,0.00,,,0.00,SomeHackedPerlScript,2013-02-10 02:44:00,
2013-02-09 21:49:00,14.3,12.6,30.21,SE,127,0.0,0.0,93,0.00,,,0.00,SomeHackedPerlScript,2013-02-10 02:49:00,
2013-02-09 21:54:00,14.0,12.4,30.21,SE,127,0.0,0.0,93,0.00,,,0.00,SomeHackedPerlScript,2013-02-10 02:54:00,
2013-02-09 21:59:00,13.9,12.2,30.20,SE,127,0.0,0.0,93,0.00,,,0.00,SomeHackedPerlScript,2013-02-10 02:59:00,
2013-02-09 22:04:00,13.6,12.0,30.20,SE,127,0.0,0.0,93,0.00,,,0.00,SomeHackedPerlScript,2013-02-10 03:04:00,
2013-02-09 22:09:00,13.4,11.8,30.21,SE,127,0.0,0.0,93,0.00,,,0.00,SomeHackedPerlScript,2013-02-10 03:09:00,
2013-02-09 22:14:00,13.2,11.6,30.21,SE,127,0.0,0.0,93,0.00,,,0.00,SomeHackedPerlScript,2013-02-10 03:14:00,
2013-02-09 22:19:00,13.1,11.6,30.20,SE,127,0.0,0.0,93,0.00,,,0.00,SomeHackedPerlScript,2013-02-10 03:19:00,
2013-02-09 22:24:00,12.9,11.5,30.21,SE,127,0.0,0.0,93,0.00,,,0.00,SomeHackedPerlScript,2013-02-10 03:24:00,
2013-02-09 22:29:00,12.9,11.5,30.21,SE,127,0.0,0.0,94,0.00,,,0.00,SomeHackedPerlScript,2013-02-10 03:29:00,
2013-02-09 22:34:00,12.7,11.3,30.20,SE,127,0.0,0.0,93,0.00,,,0.00,SomeHackedPerlScript,2013-02-10 03:34:00,
2013-02-09 22:39:00,12.7,11.3,30.20,SE,127,0.0,0.0,94,0.00,,,0.00,SomeHackedPerlScript,2013-02-10 03:39:00,
2013-02-09 22:44:00,12.6,11.2,30.20,SE,127,0.0,0.0,94,0.00,,,0.00,SomeHackedPerlScript,2013-02-10 03:44:00,
2013-02-09 22:49:00,12.3,10.9,30.20,SE,127,0.0,0.0,93,0.00,,,0.00,SomeHackedPerlScript,2013-02-10 03:49:00,
2013-02-09 22:54:00,12.3,10.9,30.20,SE,127,0.0,0.0,93,0.00,,,0.00,SomeHackedPerlScript,2013-02-10 03:54:00,
2013-02-09 22:59:00,12.0,10.6,30.19,SE,127,0.0,0.0,94,0.00,,,0.00,SomeHackedPerlScript,2013-02-10 03:59:00,
2013-02-09 23:04:00,11.8,10.4,30.19,SE,127,0.0,0.0,94,0.00,,,0.00,SomeHackedPerlScript,2013-02-10 04:04:00,
2013-02-09 23:10:00,11.7,10.3,30.20,SE,127,0.0,0.0,94,0.00,,,0.00,SomeHackedPerlScript,2013-02-10 04:10:00,
2013-02-09 23:15:00,11.7,10.3,30.19,SE,127,0.0,0.0,94,0.00,,,0.00,SomeHackedPerlScript,2013-02-10 04:15:00,
2013-02-09 23:20:00,11.6,10.3,30.19,SE,127,0.0,0.0,94,0.00,,,0.00,SomeHackedPerlScript,2013-02-10 04:20:00,
2013-02-09 23:25:00,11.5,10.2,30.19,SE,127,0.0,0.0,94,0.00,,,0.00,SomeHackedPerlScript,2013-02-10 04:25:00,
2013-02-09 23:30:00,11.5,10.2,30.19,SE,127,0.0,0.0,94,0.00,,,0.00,SomeHackedPerlScript,2013-02-10 04:30:00,
2013-02-09 23:35:00,11.3,9.9,30.19,SE,127,0.0,0.0,94,0.00,,,0.00,SomeHackedPerlScript,2013-02-10 04:35:00,
2013-02-09 23:39:00,11.1,9.8,30.19,SE,127,0.0,0.0,94,0.00,,,0.00,SomeHackedPerlScript,2013-02-10 04:39:00,
2013-02-09 23:45:00,11.0,9.6,30.19,SE,127,0.0,0.0,94,0.00,,,0.00,SomeHackedPerlScript,2013-02-10 04:45:00,
2013-02-09 23:50:00,10.8,9.4,30.19,SE,127,0.0,0.0,94,0.00,,,0.00,SomeHackedPerlScript,2013-02-10 04:50:00,
2013-02-09 23:55:00,10.7,9.3,30.19,SE,127,0.0,0.0,94,0.00,,,0.00,SomeHackedPerlScript,2013-02-10 04:55:00,